• Join FlightAware (Why Join?)
  • Login
  • US Flag GB Flag 
23:12 EST


 

Airport Tracker/Info


-or-


 

Live Flight TrackerFlight Track Log ✈ RPA4907 ✈ 11-Jul-2013 ✈ KEWR - KBWI

Flight Track Log - Related Links

Times and Time Zones

All times are in EDT time to prevent confusion due to time zone crossing. See the RPA4907 flight status page for this flight to view local times or setup timezone preferences in your user account.

Time Position Orientation Groundspeed Altitude Reporting Facility
EDT Latitude Longitude Course Direction KTS MPH feet Rate Location/Type
16:38 40.7167 -74.1500 246° West 181 208 1,500  Level New York TRACON
16:39 40.7667 -74.1167 27° Northeast 231 266 3,200 2,220 Climbing New York TRACON
16:40 40.7667 -74.2000 270° West 215 247 6,000 2,400 Climbing New York TRACON
16:41 40.5310 -74.6268 245° Southwest  Level FlightAware Approximate
16:41 40.7500 -74.2833 255° West 226 260 8,000  Level New York TRACON
16:42 40.4909 -74.7442 246° West  Level FlightAware Approximate
16:43 40.4516 -74.8620 246° West  Level FlightAware Approximate
16:43 40.6928 -74.4194 241° Southwest 240 276 11,200  Level New York Center
16:44 40.6528 -74.5019 237° Southwest 245 282 12,900 1,380 Climbing New York Center
16:45 40.6147 -74.5819 238° Southwest 250 288 14,000 480 Climbing New York Center
16:46 40.5767 -74.6619 238° Southwest 272 313 14,000  Level New York Center
16:47 40.5253 -74.7656 237° Southwest 309 356 14,000  Level New York Center
16:48 40.4739 -74.8661 236° Southwest 331 381 14,100  Climbing New York Center
16:49 40.4289 -74.9589 238° Southwest 337 388 14,100  Level New York Center
16:50 40.3672 -75.0533 229° Southwest 337 388 14,100  Level New York Center
16:51 40.2950 -75.1494 225° Southwest 343 395 14,100  Level New York Center
16:52 40.2289 -75.2406 226° Southwest 343 395 14,100 -60 Level New York Center
16:53 40.1628 -75.3339 227° Southwest 357 411 14,000 -60 Descending New York Center
16:54 40.0967 -75.4244 226° Southwest 357 411 14,000  Level New York Center
16:55 40.0328 -75.5125 227° Southwest 357 411 14,000  Level New York Center
16:56 39.9667 -75.6028 226° Southwest 352 405 14,000  Level New York Center
16:57 39.9022 -75.6958 228° Southwest 357 411 14,000  Level New York Center
16:58 39.8522 -75.7978 237° Southwest 345 397 14,000 -480 Level New York Center
16:59 39.8000 -75.8967 236° Southwest 338 389 13,100 -1,080 Descending New York Center
17:01 39.7167 -76.0667 238° Southwest 324 373 11,300 -840 Descending Potomac TRACON
17:02 39.6667 -76.1500 232° Southwest 311 358 11,000 -660 Descending Potomac TRACON
17:03 39.6167 -76.2333 232° Southwest 274 315 10,000 -1,020 Descending Potomac TRACON
17:04 39.5667 -76.3167 232° Southwest 272 313 9,000 -1,020 Descending Potomac TRACON
17:05 39.5167 -76.3667 218° Southwest 267 307 8,000 -1,020 Descending Potomac TRACON
17:06 39.4500 -76.4167 210° Southwest 271 312 7,000 -1,020 Descending Potomac TRACON
17:07 39.3833 -76.4500 201° Southwest 282 325 6,000 -1,200 Descending Potomac TRACON
17:08 39.3000 -76.4500 180° South 274 315 4,700 -1,080 Descending Potomac TRACON
17:09 39.2333 -76.4500 180° South 272 313 3,900 -900 Descending Potomac TRACON
17:10 39.1667 -76.5000 210° Southwest 239 275 2,900 -1,020 Descending Potomac TRACON